Regional Weather Roundup
Issued by NWS

Home | Current Version | Previous Version | Text Only | Print | Product List | Glossary Off
Versions: 1 2 3 4 5 6 7 8 9 10 11 12 13 14 15 16 17 18 19 20 21 22 23 24 25 26 27

000
ASUS45 KCYS 241310
RWRWY

WYOMING REGIONAL WEATHER ROUNDUP
NATIONAL WEATHER SERVICE CHEYENNE WY
700 AM MDT THU APR 24 2014

NOTE:  "FAIR" INDICATES FEW OR NO CLOUDS BELOW 12,000 FEET
WITH NO SIGNIFICANT WEATHER AND/OR OBSTRUCTIONS TO VISIBILITY.

WYZ001-241400-
YELLOWSTONE NATIONAL PARK

CITY           SKY/WX    TMP DP  RH WIND       PRES   REMARKS
LK YELLOWSTONE   N/A     26  18  71 CALM      29.99R
W YELLOWSTONE  NOT AVBL

$$
WYZ002>013-054>058-071-098>099-241400-
NORTHERN WYOMING

CITY           SKY/WX    TMP DP  RH WIND       PRES   REMARKS
JACKSON        CLOUDY    34  25  69 SW8       30.00S WCI  27
CODY           PTCLDY    43  18  36 W14G25    29.89R
GREYBULL       CLEAR     33  21  61 CALM      29.91R
WORLAND        CLEAR     34  21  59 S10       29.89R WCI  26
SHERIDAN         N/A     27  16  63 SW6         N/A  WCI  20
BUFFALO        CLEAR     39  13  34 VRB5      29.86R
GILLETTE       CLEAR     39  19  44 SW18      29.85R WCI  30
HULETT         FAIR      32  23  69 SW6       29.86  WCI  26
NEWCASTLE      FAIR      28  23  80 CALM      29.91

$$
WYZ014>020-022>026-101>103-241400-
CENTRAL WYOMING

CITY           SKY/WX    TMP DP  RH WIND       PRES   REMARKS
BIG PINEY      CLOUDY    24  15  68 CALM      30.05R
PINEDALE       CLOUDY    23  23 100 CALM      30.05S
DUBOIS         FAIR      30  18  59 NW12      29.94R WCI  21
LANDER         CLEAR     30  14  51 SW5       29.95R WCI  25
RIVERTON       CLEAR     30  15  53 SW8       29.96R WCI  22
CASPER         CLEAR     32  17  54 W9        29.96S WCI  24
DOUGLAS        CLEAR     30  21  69 CALM      29.95R

$$
WYZ021-027>030-104>119-241400-
SOUTHERN WYOMING

CITY           SKY/WX    TMP DP  RH WIND       PRES   REMARKS
EVANSTON       PTCLDY    28  15  58 SW13      30.07R WCI  17
FORT BRIDGER   FAIR      34  19  52 SW14G20   30.10R WCI  25
ROCK SPRINGS   CLEAR     29  14  53 SW10      30.07R WCI  20
DIXON          FAIR      22  18  85 CALM      30.14R
RAWLINS        CLEAR     28  14  55 W22       30.04R WCI  14
SARATOGA       FAIR      28  18  64 SW6       30.07R WCI  22
LARAMIE        CLEAR     27  14  58 SW13      30.00S WCI  16
CHEYENNE       CLEAR     32  15  49 W12       29.98S WCI  23
TORRINGTON     CLEAR     33  24  69 W10       29.95R WCI  25
PINE BLUFFS    FAIR      32  19  59 W8        29.98S WCI  25

$$



USA.gov is the U.S. government's official web portal to all federal, state and local government web resources and services.